This demonstration page uses our WeatherBlox Daily Observations layout. Learn more.

Left ArrowRight Arrow

Hourly Observations for December 25, 2021

Temp ( °F °C ) Dew Point ( °F °C ) Humidity (%) Winds ( mph kmh ) Pressure ( in mb ) Visibility ( mi km ) Precip ( " mm )
12:51 am 00:51 Clear 43 6.1 43 6.1 100 100 NE 3 6 29.92 1013 10 16 0.00 0.00
1:51 am 01:51 Clear 44 6.7 44 6.7 100 100 Calm 29.90 1013 10 16 0.00 0.00
2:51 am 02:51 Clear 42 5.6 42 5.6 100 100 Calm 29.91 1013 10 16 0.00 0.00
3:51 am 03:51 Clear 43 6.1 43 6.1 100 100 NNE 5 7 29.91 1013 10 16 0.00 0.00
4:51 am 04:51 Mostly Clear with Mist and Fog 42 5.6 42 5.6 100 100 S 3 6 29.93 1014 2 3 0.00 0.00
4:59 am 04:59 Mostly Cloudy with Fog 40 4.4 40 4.4 100 100 ESE 5 7 30.01 1016 1 1 0.00 0.00
5:04 am 05:04 Clear with Mist and Fog 40 4.4 40 4.4 100 100 E 5 7 30.01 1016 1 2 0.00 0.00
5:08 am 05:08 Clear with Mist and Fog 41 5 41 5 100 100 E 6 9 30.00 1016 4 6 0.00 0.00
5:51 am 05:51 Mostly Cloudy 43 6.1 43 6.1 100 100 E 5 7 29.93 1014 10 16 0.00 0.00
6:51 am 06:51 Partly Cloudy 42 5.6 42 5.6 100 100 ESE 5 7 29.96 1015 10 16 0.00 0.00
7:51 am 07:51 Mostly Cloudy 44 6.7 44 6.7 100 100 E 6 9 29.97 1015 10 16 0.00 0.00
8:51 am 08:51 Sunny 48 8.9 48 8.9 100 100 E 5 7 29.99 1016 10 16 0.00 0.00
9:51 am 09:51 Mostly Sunny 52 11.1 50 10 93 93 SE 3 6 30.01 1016 10 16 0.00 0.00
10:51 am 10:51 Mostly Cloudy 57 13.9 52 11.1 83 83 VRB 3 6 29.99 1016 10 16 0.00 0.00
11:51 am 11:51 Sunny 58 14.4 52 11.1 81 81 W 3 6 29.98 1015 10 16 0.00 0.00
12:51 pm 12:51 Sunny 59 15 52 11.1 78 78 Calm 29.95 1014 10 16 0.00 0.00
1:51 pm 13:51 Sunny 59 15 51 10.6 75 75 S 3 6 29.90 1013 10 16 0.00 0.00
2:51 pm 14:51 Partly Cloudy 61 16.1 51 10.6 70 70 WNW 3 6 29.89 1012 10 16 0.00 0.00
3:51 pm 15:51 Sunny 59 15 51 10.6 75 75 WNW 8 13 29.90 1013 10 16 0.00 0.00
4:51 pm 16:51 Sunny 58 14.4 51 10.6 78 78 WNW 6 9 29.89 1012 10 16 0.00 0.00
5:51 pm 17:51 Partly Cloudy 56 13.3 50 10 81 81 WSW 3 6 29.89 1012 10 16 0.00 0.00
6:51 pm 18:51 Mostly Clear 54 12.2 51 10.6 90 90 WNW 3 6 29.92 1013 10 16 0.00 0.00
7:51 pm 19:51 Mostly Cloudy 53 11.7 51 10.6 93 93 Calm 29.91 1013 10 16 0.00 0.00
8:51 pm 20:51 Mostly Cloudy 52 11.1 51 10.6 97 97 Calm 29.91 1013 10 16 0.00 0.00
9:51 pm 21:51 Cloudy 52 11.1 51 10.6 97 97 Calm 29.89 1012 10 16 0.00 0.00
10:51 pm 22:51 Cloudy 51 10.6 51 10.6 100 100 NW 3 6 29.87 1012 10 16 0.00 0.00
11:51 pm 23:51 Cloudy 52 11.1 51 10.6 97 97 WNW 6 9 29.87 1012 10 16 0.00 0.00

Powered by AerisWeather